Wind_Speed
49 47 46 45 42 43 40 38 36 33 33 34 32 28 21 18 18 14 12 9 11 10 9 5 4 3 2 2 3 4 5 7 9 10 10 9 8 8 7 7 7 8 8 7 6 8 11 13 15
52 49 46 46 45 45 44 41 39 35 36 37 35 31 27 23 20 17 14 11 8 11 8 6 5 6 3 2 4 5 5 7 9 11 11 9 9 8 8 8 9 8 6 7 9 12 13 11 13
55 53 49 48 47 49 47 42 42 40 37 39 37 34 32 29 25 22 19 17 12 10 9 3 5 5 4 2 4 5 8 9 11 12 12 11 9 9 9 9 8 8 7 8 11 11 11 8 4
59 55 52 52 52 54 50 47 46 46 42 38 38 36 34 32 29 25 23 19 17 12 11 9 7 8 3 2 3 4 7 10 9 10 11 11 11 11 10 9 9 10 9 11 12 12 9 6 6
58 60 57 54 56 57 55 50 50 49 47 41 41 38 37 35 32 31 27 23 19 19 15 12 10 7 6 3 2 3 6 7 9 10 12 13 13 12 11 9 10 12 13 13 12 12 10 9 10
56 58 57 57 58 61 59 55 55 54 52 46 43 44 40 39 36 35 32 28 24 22 20 16 14 12 10 8 5 3 5 6 9 11 14 15 14 14 13 13 13 15 16 15 13 11 11 12 12
59 57 59 59 62 62 62 59 59 59 56 50 47 44 48 44 41 39 37 33 29 26 24 23 19 17 16 14 12 9 8 8 12 14 15 14 14 15 16 17 18 19 19 16 14 14 14 13 15
61 59 58 60 64 67 66 62 63 60 60 55 52 53 46 50 44 43 39 38 33 31 28 27 24 21 20 18 17 14 12 10 11 13 15 15 15 17 17 18 18 19 18 16 17 17 18 18 19
61 57 61 68 69 68 68 67 68 67 62 58 60 54 56 51 49 48 44 42 39 36 33 32 30 27 24 22 22 19 17 16 15 15 15 16 16 17 17 16 15 16 18 19 19 21 22 23 24
61 59 64 70 68 71 71 69 70 68 69 64 60 61 59 56 46 53 50 46 45 42 40 37 36 33 30 27 26 24 22 22 20 19 18 18 19 19 19 18 19 20 22 22 24 25 27 28 30
67 64 66 68 69 71 72 73 73 72 70 68 65 62 63 63 51 47 49 49 49 49 46 42 41 38 35 32 30 28 28 27 26 23 23 23 23 24 24 25 25 26 28 30 31 32 32 33 35
67 69 70 72 70 68 70 71 72 72 74 75 71 67 61 68 63 56 52 54 53 54 55 49 45 44 40 38 37 34 33 32 31 30 29 29 28 28 29 30 30 30 32 33 34 36 37 38 40
74 75 74 75 74 72 72 73 72 71 73 73 74 76 72 64 67 66 60 52 59 55 54 53 50 48 46 43 44 41 39 37 36 35 35 36 35 35 34 35 36 37 37 37 39 40 41 42 44
79 77 79 77 80 82 78 75 75 72 77 74 73 75 78 76 67 68 70 64 59 56 58 53 53 52 51 47 49 48 46 43 42 42 43 41 41 40 42 42 42 42 42 43 42 45 47 49 49
76 82 81 81 84 85 86 80 74 76 79 78 77 76 77 78 77 69 75 71 67 63 58 58 56 52 53 52 52 51 51 49 48 48 49 47 47 47 49 49 47 49 48 46 45 45 46 49 50
75 78 82 86 88 88 90 78 83 83 80 79 78 79 80 77 73 75 70 74 71 71 63 61 59 61 58 53 50 50 52 54 51 53 52 52 50 50 52 55 53 53 51 49 50 49 52 54 55
86 82 80 81 85 92 92 85 87 88 86 82 80 77 75 77 77 76 75 72 74 73 71 67 66 59 60 57 56 54 57 54 54 51 53 51 52 54 56 56 55 54 54 54 55 57 59 61 61
87 89 89 87 86 90 88 94 98 92 92 87 82 82 77 73 75 78 74 73 72 72 75 74 71 67 67 59 58 64 65 55 53 54 57 55 52 54 56 57 58 60 57 58 60 61 64 69 67
76 81 90 94 94 95 93 87 95 96 97 97 91 86 87 79 78 82 81 76 74 70 70 74 68 69 72 68 69 66 65 61 61 65 60 59 57 58 59 60 64 63 64 64 67 70 72 73 74
78 83 83 83 95 99 100 93 90 89 91 99 96 91 93 91 83 82 83 82 79 76 73 74 72 71 70 68 71 70 68 67 61 64 61 62 64 65 65 66 68 68 68 71 71 76 75 79 80
75 78 81 87 88 88 99 98 98 96 93 91 96 97 97 98 95 84 86 88 87 83 80 79 77 76 76 75 73 71 70 68 70 68 70 69 68 66 68 69 68 65 67 69 75 78 80 82 84
77 82 80 84 86 87 87 85 97 98 98 93 91 91 93 98 103 98 90 90 88 88 88 86 84 76 78 76 79 75 73 71 67 69 73 74 74 71 73 74 72 71 67 74 76 80 83 86 86
72 75 78 81 87 82 87 89 76 91 99 100 98 96 94 93 96 97 96 95 92 89 90 91 86 82 76 76 81 83 78 73 74 76 74 74 75 72 67 67 70 73 72 74 83 85 87 89 94
68 71 74 75 77 80 90 92 73 83 90 99 106 103 101 99 96 92 93 95 100 93 87 88 87 83 82 81 80 80 79 75 75 75 75 76 77 78 78 79 81 80 78 80 84 88 93 94 97
68 69 70 72 72 71 81 85 74 88 94 99 101 106 107 101 99 96 93 87 92 98 92 89 89 88 86 86 83 78 74 73 75 75 78 79 82 82 82 83 82 84 82 86 86 89 92 93 95
67 68 69 70 71 70 73 74 77 84 90 97 99 101 105 107 101 99 96 91 87 90 93 94 90 89 91 87 85 84 82 81 76 77 80 83 84 85 86 87 88 88 86 86 88 90 93 92 90
57 59 59 59 64 66 72 71 72 74 80 85 90 96 97 103 106 103 100 95 93 89 84 90 95 92 92 92 88 88 87 88 85 84 82 83 85 86 86 88 83 83 84 88 93 88 82 84 87
54 53 55 53 57 60 67 70 67 69 70 73 79 85 91 94 99 102 101 98 95 91 85 80 81 88 91 87 87 89 89 92 90 87 87 80 81 81 82 81 85 85 83 89 81 80 82 86 89
51 51 49 52 54 54 57 61 59 63 66 68 71 75 82 88 90 92 98 101 96 92 87 83 81 79 79 81 83 83 87 87 84 79 74 75 77 76 78 80 77 79 82 77 79 88 90 92 95
46 45 46 47 48 49 53 58 57 59 63 66 68 69 72 77 84 86 91 98 98 94 90 87 83 80 80 79 81 79 78 80 75 65 62 65 61 59 65 70 69 74 78 84 86 90 92 98 102
Wind_Direction
230 232 232 235 240 242 243 247 250 251 259 262 267 273 271 274 284 288 298 311 330 343 342 16 49 47 2 288 268 243 232 226 225 230 229 232 237 245 250 247 251 254 259 269 278 276 285 284 284
229 229 230 235 239 241 240 243 245 254 251 258 262 266 267 270 276 282 284 291 306 326 337 350 48 52 28 329 272 260 245 232 234 234 237 249 249 253 254 255 261 258 260 269 276 275 278 287 285
227 229 228 232 237 239 240 244 245 250 250 252 254 255 263 268 271 270 278 282 286 299 311 327 354 11 25 319 291 276 258 255 256 244 244 247 246 256 258 255 247 248 263 271 283 284 275 280 266
227 228 230 230 234 237 242 242 243 245 248 249 244 250 259 258 264 262 268 267 273 275 287 287 296 313 340 347 284 284 282 266 253 241 242 248 251 253 251 235 240 252 266 284 293 290 277 261 285
227 229 228 230 234 237 239 240 242 243 244 242 249 247 253 251 255 257 259 263 257 270 270 273 281 293 290 297 321 293 277 281 264 252 246 250 249 249 242 245 252 258 278 290 282 283 267 277 288
228 229 225 227 232 236 240 238 239 240 241 242 241 251 246 247 248 252 254 258 254 255 262 260 265 274 279 286 273 258 253 260 259 254 252 249 253 250 245 251 257 262 276 276 266 269 271 273 291
231 230 228 227 233 236 239 239 236 240 241 243 240 245 249 240 243 244 249 254 254 249 253 259 251 261 267 272 280 271 259 257 253 254 252 252 256 253 247 248 255 258 267 263 268 266 270 282 291
236 231 233 230 233 235 236 236 237 238 244 243 241 239 242 246 246 243 244 249 251 249 250 250 247 247 255 267 270 274 276 263 264 261 265 255 261 258 257 257 260 258 260 262 262 268 274 274 280
238 236 236 236 233 235 236 234 239 239 237 246 244 239 241 242 254 245 243 247 249 248 246 248 247 246 247 255 264 267 272 269 268 266 268 267 273 265 262 256 263 263 261 265 266 270 273 277 285
236 236 236 237 235 235 236 235 236 238 240 239 246 243 241 241 251 257 245 244 248 248 247 245 246 248 250 251 256 259 265 270 267 268 268 267 271 270 265 261 267 271 271 271 276 276 277 279 283
236 234 236 240 240 236 238 236 238 237 238 238 237 248 240 244 237 249 248 244 247 248 246 244 244 248 249 252 255 257 259 264 270 270 269 268 270 272 272 272 274 278 276 276 277 277 278 278 281
235 236 238 240 239 238 240 241 239 238 239 237 236 234 246 244 240 240 243 251 250 252 247 245 244 245 249 251 253 254 257 260 264 269 274 273 272 274 273 271 271 274 273 274 276 277 278 278 280
238 235 236 237 236 236 238 240 238 241 238 240 236 233 236 243 243 240 244 247 251 250 251 250 246 246 247 250 254 255 255 258 260 264 267 271 275 275 272 272 275 275 275 275 276 278 279 278 279
241 240 237 239 236 235 233 236 236 238 238 239 238 240 234 240 240 241 242 245 244 248 253 252 251 250 249 249 253 255 259 257 259 263 263 262 266 270 273 275 275 274 275 276 278 280 283 283 281
239 237 238 240 240 241 235 233 236 235 234 234 237 241 238 238 240 241 240 241 243 246 246 253 254 254 256 255 252 255 257 257 258 259 261 265 267 269 269 270 272 275 276 278 278 279 281 284 285
244 240 239 239 241 241 242 232 238 236 239 236 237 238 243 240 241 240 242 243 241 243 247 246 249 254 256 260 256 259 259 259 262 263 266 268 273 275 277 275 277 278 279 280 281 282 282 284 286
243 244 242 240 242 241 243 235 241 241 240 239 240 239 243 242 241 241 238 239 245 245 246 247 249 250 256 258 259 261 257 256 262 268 269 273 275 275 275 277 278 281 282 282 282 283 284 285 285
246 243 243 242 243 240 240 239 241 245 240 240 245 243 245 245 244 245 240 240 240 244 249 249 248 250 249 249 255 262 263 263 268 270 268 272 274 278 281 282 282 282 283 287 288 288 288 288 288
253 250 245 244 242 242 240 238 240 244 244 239 241 241 241 242 245 243 242 240 241 244 246 247 249 253 248 249 252 253 261 265 271 268 267 269 271 275 278 281 281 283 286 287 289 288 288 285 282
253 251 251 246 246 243 241 238 238 239 241 241 243 245 244 244 244 244 243 245 244 242 239 248 250 248 251 251 255 251 262 259 265 271 274 275 276 276 276 279 283 284 286 289 293 290 286 284 286
257 252 249 248 248 247 244 239 239 239 238 240 244 243 243 243 243 241 245 244 243 244 244 245 246 250 251 255 254 257 254 258 263 263 266 268 272 273 275 276 280 282 282 282 281 280 284 284 285
257 256 250 249 243 245 244 240 242 240 240 241 240 240 242 244 243 245 240 242 243 244 244 244 247 247 251 254 253 257 258 261 262 262 263 268 270 275 276 275 277 281 280 283 284 284 284 287 288
259 258 256 246 244 241 243 240 235 244 239 239 239 241 239 242 242 242 238 243 242 243 243 243 247 246 248 254 255 257 258 261 263 264 268 269 270 272 270 271 274 280 282 281 283 285 287 288 290
259 257 258 256 249 247 245 242 240 238 240 239 238 239 241 239 241 241 238 238 241 242 242 242 244 246 246 248 252 252 254 257 260 264 268 270 271 270 273 276 279 281 281 285 285 285 287 289 291
259 257 256 257 256 252 250 246 243 239 238 237 237 237 238 240 241 242 243 239 240 242 240 241 245 249 249 249 251 250 251 255 260 262 265 270 271 271 273 274 277 278 280 283 287 288 288 288 291
263 261 257 254 256 254 253 248 244 243 242 240 240 239 237 236 238 240 242 241 240 242 242 244 245 248 249 249 250 251 251 254 261 264 266 267 269 272 272 273 276 279 280 284 286 285 288 290 291
274 267 264 258 254 253 254 252 247 246 246 245 241 240 240 237 236 238 240 240 242 242 242 243 244 248 252 251 251 254 255 256 260 264 266 269 273 274 276 278 279 279 281 282 283 285 286 287 288
277 271 266 260 254 249 249 250 247 248 246 243 242 239 240 241 240 235 237 238 239 241 242 242 244 246 250 253 253 254 256 258 262 267 269 269 271 272 275 276 277 280 281 284 281 281 282 284 283
275 269 264 262 257 252 252 252 248 248 248 243 242 239 238 241 241 238 235 237 240 240 241 242 244 247 250 251 254 256 257 260 267 268 269 271 270 274 276 277 278 280 282 279 277 282 283 285 286
270 267 264 260 258 253 254 255 252 248 247 246 242 241 238 238 239 238 236 235 238 238 240 240 242 245 248 252 255 256 259 260 265 269 266 267 271 272 276 275 275 277 278 276 278 279 282 283 286
Height
10808 10813 10816 10820 10822 10824 10827 10829 10832 10836 10838 10839 10842 10844 10845 10845 10846 10847 10845 10844 10843 10842 10840 10838 10836 10835 10835 10835 10834 10834 10834 10834 10835 10836 10837 10838 10839 10839 10840 10839 10839 10839 10839 10839 10840 10840 10840 10840 10839
10802 10806 10810 10814 10816 10818 10821 10824 10827 10832 10832 10835 10837 10839 10841 10842 10843 10844 10844 10843 10842 10841 10840 10838 10836 10835 10834 10834 10834 10834 10834 10833 10834 10835 10836 10837 10837 10837 10837 10837 10837 10837 10838 10838 10838 10838 10838 10837 10836
10794 10800 10804 10808 10809 10809 10813 10820 10821 10825 10828 10829 10832 10833 10836 10838 10840 10841 10841 10841 10841 10840 10839 10838 10837 10835 10834 10833 10833 10833 10833 10833 10833 10834 10834 10835 10835 10835 10836 10836 10836 10836 10836 10837 10836 10835 10835 10834 10834
10786 10793 10798 10801 10801 10802 10806 10811 10815 10817 10821 10824 10826 10828 10830 10833 10835 10836 10837 10838 10838 10838 10838 10837 10836 10835 10834 10832 10832 10832 10833 10833 10833 10832 10833 10833 10833 10834 10834 10834 10834 10834 10834 10834 10834 10833 10832 10832 10832
10780 10785 10790 10794 10794 10795 10799 10803 10807 10810 10814 10818 10820 10821 10824 10827 10829 10831 10832 10834 10835 10835 10835 10835 10834 10833 10833 10831 10831 10830 10831 10831 10832 10831 10831 10831 10831 10831 10831 10831 10832 10832 10832 10832 10831 10830 10830 10830 10829
10772 10776 10782 10783 10785 10788 10791 10795 10798 10801 10805 10809 10813 10817 10817 10820 10823 10825 10827 10829 10831 10832 10832 10832 10832 10831 10831 10830 10829 10828 10828 10828 10829 10830 10830 10829 10829 10829 10829 10829 10829 10829 10828 10828 10828 10827 10826 10826 10826
10761 10768 10773 10775 10777 10779 10781 10785 10788 10789 10795 10800 10806 10808 10808 10812 10815 10818 10821 10823 10825 10827 10829 10829 10829 10828 10828 10828 10827 10827 10826 10826 10827 10827 10826 10826 10826 10825 10825 10825 10825 10824 10824 10824 10824 10824 10823 10823 10822
10752 10761 10765 10764 10762 10765 10767 10776 10778 10783 10785 10792 10795 10800 10802 10801 10809 10811 10814 10817 10819 10821 10823 10825 10825 10825 10825 10825 10824 10824 10824 10824 10824 10824 10824 10824 10823 10823 10823 10822 10821 10820 10820 10821 10820 10820 10819 10818 10817
10742 10754 10753 10747 10751 10751 10757 10766 10768 10773 10778 10781 10785 10794 10793 10797 10803 10802 10805 10810 10812 10815 10817 10819 10820 10820 10820 10820 10821 10821 10820 10820 10821 10821 10821 10821 10820 10820 10819 10819 10819 10818 10817 10817 10816 10815 10814 10813 10811
10732 10739 10737 10733 10741 10743 10745 10753 10754 10763 10768 10774 10775 10781 10788 10787 10793 10794 10797 10801 10804 10808 10810 10812 10813 10815 10816 10816 10816 10817 10817 10817 10816 10816 10816 10816 10816 10815 10815 10815 10814 10813 10813 10812 10810 10809 10808 10806 10804
10718 10727 10723 10725 10729 10732 10735 10742 10745 10752 10756 10761 10766 10768 10779 10778 10784 10787 10790 10792 10796 10798 10801 10804 10806 10808 10810 10811 10811 10812 10812 10813 10813 10812 10811 10810 10810 10810 10809 10809 10809 10808 10807 10805 10804 10803 10802 10800 10798
10707 10711 10710 10710 10714 10719 10725 10729 10736 10740 10742 10748 10754 10763 10764 10766 10773 10777 10780 10784 10786 10788 10791 10795 10798 10800 10802 10805 10805 10805 10806 10806 10807 10807 10806 10805 10804 10804 10803 10802 10802 10801 10800 10799 10798 10796 10794 10792 10790
10689 10691 10693 10696 10701 10706 10709 10716 10723 10731 10731 10734 10740 10747 10755 10753 10759 10766 10770 10774 10775 10780 10782 10786 10790 10792 10794 10797 10797 10798 10798 10800 10800 10800 10799 10798 10798 10798 10796 10794 10794 10794 10793 10792 10790 10788 10786 10784 10782
10671 10678 10680 10683 10682 10683 10692 10700 10708 10716 10717 10720 10726 10730 10742 10740 10743 10752 10757 10762 10765 10771 10774 10778 10781 10784 10784 10787 10789 10790 10791 10792 10792 10792 10791 10790 10790 10790 10788 10787 10786 10785 10785 10784 10782 10780 10777 10774 10772
10654 10659 10664 10666 10666 10669 10673 10690 10697 10693 10695 10704 10712 10717 10727 10728 10734 10737 10740 10749 10756 10759 10763 10768 10771 10774 10776 10778 10779 10780 10780 10782 10782 10783 10783 10783 10782 10780 10779 10777 10777 10775 10775 10773 10773 10771 10767 10763 10760
10635 10642 10646 10646 10648 10651 10656 10691 10674 10677 10681 10691 10696 10704 10707 10719 10724 10725 10731 10737 10743 10747 10749 10756 10759 10763 10765 10769 10770 10771 10772 10771 10773 10772 10773 10774 10773 10772 10770 10767 10767 10765 10764 10763 10762 10761 10757 10753 10749
10616 10622 10627 10631 10631 10635 10642 10668 10653 10663 10669 10678 10681 10689 10692 10703 10708 10712 10718 10723 10730 10736 10738 10743 10748 10751 10753 10759 10759 10761 10759 10759 10762 10764 10763 10764 10764 10762 10760 10758 10756 10756 10753 10752 10751 10748 10745 10742 10736
10595 10600 10603 10609 10610 10614 10626 10641 10644 10644 10656 10663 10665 10673 10680 10687 10694 10697 10703 10710 10717 10724 10728 10731 10737 10739 10741 10746 10747 10747 10748 10751 10754 10754 10753 10754 10753 10751 10749 10748 10746 10744 10742 10740 10738 10736 10731 10727 10724
10576 10579 10584 10586 10588 10594 10604 10618 10621 10628 10632 10641 10646 10652 10659 10666 10674 10678 10686 10694 10701 10710 10716 10715 10724 10725 10730 10733 10733 10734 10737 10743 10743 10743 10743 10742 10742 10741 10739 10736 10734 10732 10731 10729 10725 10721 10718 10711 10706
10551 10555 10558 10564 10566 10573 10578 10601 10603 10611 10619 10624 10634 10640 10646 10651 10658 10665 10673 10677 10684 10693 10703 10703 10708 10713 10717 10719 10720 10722 10728 10729 10730 10733 10732 10731 10731 10730 10728 10725 10723 10721 10719 10716 10712 10707 10700 10694 10690
10525 10526 10533 10538 10541 10548 10555 10577 10582 10588 10597 10602 10611 10618 10623 10628 10636 10652 10652 10659 10666 10674 10685 10688 10692 10698 10704 10708 10707 10712 10713 10715 10719 10719 10718 10718 10716 10716 10715 10713 10711 10708 10705 10700 10694 10689 10683 10677 10672
10501 10502 10509 10514 10517 10523 10528 10554 10562 10567 10576 10584 10588 10595 10603 10606 10614 10627 10636 10640 10648 10656 10663 10671 10675 10684 10689 10695 10696 10695 10701 10704 10705 10706 10705 10706 10704 10702 10702 10701 10698 10693 10689 10684 10678 10671 10665 10661 10657
10477 10481 10485 10489 10494 10506 10505 10511 10550 10542 10552 10556 10563 10569 10580 10584 10589 10597 10618 10622 10628 10637 10646 10654 10659 10671 10676 10682 10680 10681 10689 10690 10689 10691 10692 10692 10690 10690 10689 10686 10683 10679 10674 10667 10660 10654 10648 10643 10639
10458 10457 10460 10467 10474 10485 10479 10491 10531 10521 10521 10527 10534 10544 10552 10563 10567 10576 10593 10604 10604 10615 10628 10637 10643 10651 10658 10663 10661 10669 10673 10673 10675 10677 10678 10677 10676 10675 10673 10672 10669 10665 10658 10650 10643 10637 10631 10625 10619
10434 10436 10440 10444 10452 10461 10461 10479 10496 10486 10490 10495 10504 10516 10529 10539 10550 10559 10569 10590 10588 10597 10611 10619 10626 10632 10639 10642 10646 10656 10656 10660 10662 10663 10663 10664 10662 10660 10659 10656 10653 10647 10642 10634 10626 10619 10612 10606 10601
10412 10418 10421 10426 10428 10438 10441 10452 10460 10462 10466 10475 10485 10494 10505 10517 10528 10538 10549 10567 10573 10580 10594 10603 10609 10616 10617 10626 10634 10638 10643 10647 10647 10648 10649 10647 10647 10647 10645 10641 10636 10630 10622 10616 10609 10602 10594 10587 10580
10396 10397 10402 10409 10410 10421 10418 10428 10436 10444 10446 10453 10464 10473 10483 10495 10508 10518 10528 10545 10555 10563 10576 10587 10595 10602 10603 10611 10620 10624 10628 10630 10632 10632 10632 10631 10632 10633 10630 10625 10618 10611 10605 10600 10591 10585 10577 10571 10564
10380 10382 10382 10386 10389 10399 10399 10403 10417 10422 10426 10433 10442 10455 10462 10473 10485 10500 10514 10524 10533 10548 10561 10573 10581 10586 10590 10596 10604 10609 10612 10616 10619 10618 10617 10618 10619 10617 10612 10606 10600 10595 10589 10584 10575 10568 10562 10555 10547
10361 10363 10367 10370 10373 10379 10382 10386 10399 10404 10409 10416 10422 10433 10444 10452 10464 10481 10497 10504 10518 10531 10545 10557 10565 10572 10577 10582 10588 10594 10597 10601 10602 10602 10603 10602 10604 10599 10592 10588 10584 10578 10572 10566 10560 10553 10544 10535 10527
10344 10347 10350 10352 10357 10366 10370 10371 10380 10387 10390 10396 10404 10415 10425 10435 10446 10461 10475 10486 10499 10513 10528 10542 10552 10560 10564 10569 10574 10580 10583 10586 10589 10590 10590 10591 10585 10580 10578 10573 10568 10562 10555 10549 10543 10535 10527 10518 10509